Weather History for Arica, Chile

Change the Weather History Date:

Thursday, March 27, 2014

  Actual Average Record
Temperature  
Mean Temperature 70 °F -  
Max Temperature 74 °F 71 °F 78 °F (1998)
Min Temperature 66 °F 60 °F 60 °F (2013)
Cooling Degree Days 6    
Growing Degree Days 20 (Base 50)    
Moisture  
Dew Point 57 °F    
Average Humidity 62    
Maximum Humidity 68    
Minimum Humidity 43    
Precipitation  
Precipitation 0.00 in 0.00 in - ()
Sea Level Pressure  
Sea Level Pressure 29.93 in    
Wind  
Wind Speed 5 mph ()    
Max Wind Speed 15 mph    
Max Gust Speed -    
Visibility 11.5 miles    
Events      
Averages and records for this station are not official NWS values.
T = Trace of Precipitation, MM = Missing Value Source: Averaged Metar Reports

Daily Weather History Graph

Daily Weather History Graph

Search for Another Location

Airport:

Trip Planner

Search our weather history database for the weather conditions in past years. The results will help you decide how hot, cold, wet, or windy it might be!

Date:

Astronomy

Mar. 27, 2014 Rise Set
Actual Time 6:46 AM CLT 6:46 PM CLT
Civil Twilight 6:24 AM CLT 7:08 PM CLT
Nautical Twilight 5:59 AM CLT 7:33 PM CLT
Astronomical Twilight 5:34 AM CLT 7:58 PM CLT
Moon 3:32 AM CLT (3/27) 4:23 PM CLT (3/27)
Length of Visible Light 12h 43m
Length of Day
11h 59m
Waning Crescent, 13% of the Moon is Illuminated
Mar 27
Waning Crescent
Mar 30
New
Apr 7
First Quarter
Apr 15
Full
Apr 22
Last Quarter

Hourly Weather History & Observations

Time (CLT) Temp. Dew Point Humidity Pressure Visibility Wind Dir Wind Speed Gust Speed Precip Events Conditions
12:00 AM 68.0 °F 55.4 °F 64% 30.01 in - SSE 2.3 mph - N/A   Clear
1:00 AM 69.8 °F 57.2 °F 64% 29.98 in - SSW 2.3 mph - N/A   Clear
2:00 AM 69 °F 56 °F 55% 29.97 in 6 mi SW 3.5 mph - -  
2:00 AM 68.0 °F 57.2 °F 68% 29.95 in - SW 3.5 mph - N/A   Clear
3:00 AM 69.8 °F 57.2 °F 64% 29.95 in - ESE 4.6 mph - N/A   Clear
4:00 AM 69.8 °F 57.2 °F 64% 29.92 in - SE 4.6 mph - N/A   Clear
5:00 AM 69 °F 56 °F 55% 29.92 in 19 mi ESE 6.9 mph - -   Clear
5:00 AM 69.8 °F 57.2 °F 64% 29.92 in - ESE 6.9 mph - N/A   Clear
6:00 AM 68.0 °F 55.4 °F 64% 29.92 in - East 8.1 mph - N/A   Clear
7:00 AM 68.0 °F 55.4 °F 64% 29.95 in 6.2 mi East 6.9 mph - N/A   Mostly Cloudy
8:00 AM 68 °F 56 °F 57% 29.95 in 25 mi East 10.4 mph - -   Clear
8:00 AM 68.0 °F 57.2 °F 68% 29.95 in 6.2 mi East 10.4 mph - N/A   Mostly Cloudy
9:00 AM 69.8 °F 57.2 °F 64% 29.95 in - East 5.8 mph - N/A   Clear
10:00 AM 71.6 °F 55.4 °F 57% 29.95 in - SE 3.5 mph - N/A   Clear
11:00 AM 74 °F 56 °F 43% 29.94 in 19 mi SSW 9.2 mph - -   Clear
11:00 AM 71.6 °F 57.2 °F 60% 29.92 in - SSW 9.2 mph - N/A   Clear
12:00 PM 73.4 °F 59.0 °F 61% 29.92 in - SW 12.7 mph - N/A   Clear
1:00 PM 71.6 °F 57.2 °F 60% 29.92 in - SW 11.5 mph - N/A   Clear
2:00 PM 71.6 °F 55.4 °F 57% 29.89 in - SSW 12.7 mph - N/A   Clear
3:00 PM 71.6 °F 57.2 °F 60% 29.86 in - SSW 15.0 mph - N/A   Clear
4:00 PM 69.8 °F 57.2 °F 64% 29.86 in - SSW 12.7 mph - N/A   Clear
5:00 PM 70 °F 58 °F 56% 29.88 in 12 mi SSW 9.2 mph - -   Clear
5:00 PM 69.8 °F 57.2 °F 64% 29.86 in - SSW 9.2 mph - N/A   Clear
6:00 PM 68.0 °F 57.2 °F 68% 29.89 in - SSW 6.9 mph - N/A   Clear
7:00 PM 68.0 °F 57.2 °F 68% 29.92 in - SW 4.6 mph - N/A   Clear
8:00 PM 67 °F 58 °F 65% 29.94 in 12 mi SSE 1.2 mph - -  
8:00 PM 68.0 °F 57.2 °F 68% 29.92 in - SSE 1.2 mph - N/A   Clear
9:00 PM 68.0 °F 57.2 °F 68% 29.95 in - Calm Calm - N/A   Clear
10:00 PM 68.0 °F 57.2 °F 68% 29.95 in - East 2.3 mph - N/A   Clear
11:00 PM 67 °F 55 °F 57% 29.97 in 12 mi East 4.6 mph - -  
11:00 PM 66.2 °F 55.4 °F 68% 29.95 in - East 9.2 mph - N/A   Clear